Tracking 30970 objects as of 3-Jul-2025
HD Live streaming from Space Station
objects crossing your sky now

SL-16 DEB

Track SL-16 DEB now!
10-day predictions


NORAD ID: 16391
Int'l Code: 1985-097E
Perigee: 841.5 km
Apogee: 1,121.0 km
Inclination: 71.0 °
Period: 104.6 minutes
Semi major axis: 7352 km
RCS: 0.086 m2 (small)
Launch date: October 22, 1985
Source: Commonwealth of Independent States (former USSR) (CIS)
Launch site: TYURATAM MISSILE AND SPACE COMPLEX (TTMTR)

Note: This is SATELLITE DEBRIS
Your satellite tracking list
METEOR 2-9 DEB
Track 1 satellite(s)




NASA's NSSDC Master Catalog

Two Line Element Set (TLE):
1 16391U 85097E   25183.94713226  .00000041  00000-0  74950-4 0  9996
2 16391  70.9946 103.2018 0190029 338.5169  93.6502 13.77121181993736
Source of the keplerian elements: AFSPC